Flag for Turkey Weather past 2 weeks in Istanbul, Turkey

Now
64 °F

Passing clouds.


Feels Like: 64 °F
Forecast: 54 / 65 °F
Wind: 7 mph from East

Location: Istanbul Ataturk Airport


UV Index: 5 (Moderate)

Visibility: N/A


Pressure: 29.89 "Hg

Humidity: 37%

Dew point: 37 °F

Location of IstanbulLocation

Historic Weather in Istanbul

°F

Istanbul temperature yesterday

Maximum temperature yesterday: 68 °F (at 4:20 PM)
Minimum temperature yesterday: 48 °F (at 5:50 AM)
Average temperature yesterday: 60 °F

Past Weeks' High & Low Weather Summary

 TemperatureHumidityPressure
High72 °F (Apr 5, 2:50 PM)100% (Apr 5, 5:20 AM)30.09 "Hg (Apr 5, 5:20 AM)
Low45 °F (Apr 14, 4:50 AM)25% (Apr 5, 3:20 PM)29.80 "Hg (Apr 10, 1:50 PM)
Average56 °F69%29.97 "Hg
* Reported Apr 1 9:20 PM — Apr 16 9:50 PM, Istanbul, Weather by CustomWeather, © 2014

Note: Actual official high and low records may vary slightly from our data, if they occured in-between our weather recording intervals... More about our weather records

Advertising

Historic Weather Conditions — Data for Previous 24 hours

 ConditionsComfort  
Time TempWeatherWind HumidityBarometerVisibility
9:50 PM
Apr 16
66 °FPassing clouds.7 mph35%29.89 "HgN/A
9:20 PM66 °FPassing clouds.8 mph35%29.89 "HgN/A
8:50 PM70 °FPassing clouds.5 mph33%29.89 "HgN/A
8:20 PM72 °FScattered clouds.1 mph33%29.86 "HgN/A
7:50 PM70 °FScattered clouds.1 mph31%29.86 "HgN/A
7:20 PM70 °FScattered clouds.No wind31%29.86 "HgN/A
6:50 PM70 °FScattered clouds.No wind33%29.86 "HgN/A
6:20 PM68 °FPartly sunny.No wind33%29.86 "HgN/A
5:50 PM70 °FPartly sunny.No wind33%29.86 "HgN/A
5:20 PM68 °FPartly sunny.No wind35%29.86 "HgN/A
4:50 PM68 °FPartly sunny.2 mph35%29.86 "HgN/A
4:20 PM68 °FSunny.No wind38%29.86 "Hg10 mi
3:50 PM70 °FSunny.No wind35%29.86 "Hg10 mi
3:20 PM68 °FSunny.1 mph38%29.86 "Hg10 mi
2:50 PM66 °FPartly sunny.3 mph40%29.86 "HgN/A
2:20 PM68 °FPassing clouds.5 mph40%29.86 "HgN/A
1:50 PM68 °FPassing clouds.7 mph40%29.86 "HgN/A
1:20 PM68 °FPassing clouds.6 mph40%29.89 "HgN/A
12:50 PM68 °FPassing clouds.6 mph40%29.89 "HgN/A
12:20 PM66 °FSunny.7 mph43%29.89 "Hg10 mi
11:50 AM66 °FPassing clouds.5 mph46%29.89 "HgN/A
11:20 AM64 °FPassing clouds.5 mph49%29.89 "HgN/A
10:50 AM64 °FPassing clouds.5 mph49%29.89 "HgN/A
10:20 AM64 °FPassing clouds.5 mph49%29.89 "HgN/A
9:50 AM63 °FSunny.6 mph56%29.89 "Hg10 mi
9:20 AM64 °FPassing clouds.7 mph52%29.89 "HgN/A
8:50 AM63 °FPassing clouds.5 mph52%29.89 "HgN/A
8:20 AM61 °FSunny.2 mph59%29.89 "Hg10 mi
7:50 AM59 °FSunny.2 mph63%29.89 "Hg10 mi
7:20 AM57 °FClear.1 mph72%29.86 "Hg10 mi
6:50 AM55 °FPassing clouds.5 mph72%29.86 "HgN/A
5:50 AM55 °FClear.2 mph72%29.86 "Hg10 mi
5:20 AM55 °FPassing clouds.3 mph72%29.86 "HgN/A
4:50 AM57 °FPassing clouds.6 mph67%29.86 "HgN/A
4:20 AM55 °FClear.No wind72%29.86 "Hg10 mi
3:50 AM54 °FPassing clouds.3 mph77%29.86 "HgN/A
1:50 AM57 °FClear.1 mph72%29.86 "Hg10 mi
1:20 AM59 °FClear.2 mph63%29.86 "Hg10 mi
12:50 AM59 °FPassing clouds.5 mph63%29.86 "HgN/A
12:20 AM59 °FClear.3 mph59%29.86 "Hg10 mi
11:50 PM
Apr 15
59 °FPassing clouds.5 mph59%29.86 "HgN/A
11:20 PM61 °FPassing clouds.3 mph55%29.86 "HgN/A
10:50 PM61 °FPassing clouds.5 mph45%29.86 "HgN/A
10:20 PM63 °FPassing clouds.5 mph42%29.86 "HgN/A
Weather by CustomWeather, © 2014

See weather overview